Temp
24 24 23 22 25 25 27 31 33 31 29 30 29 30 29 27 28 24 24 24 23 22 22 21 21 21 21 21 21 21 21 21 21 21 21 21 21 22 21 21 21 21 21 21 21 21 21 21 21
25 23 24 23 25 25 26 31 32 30 29 28 28 30 29 27 29 26 25 24 23 22 21 21 22 22 21 21 21 21 21 21 21 21 21 21 21 21 21 21 21 21 21 21 21 21 21 21 21
24 26 24 23 25 26 26 31 33 33 32 31 28 30 29 28 29 28 25 24 23 22 21 21 21 22 21 22 21 21 21 21 21 21 21 21 21 21 21 21 21 21 21 21 21 21 21 21 22
26 25 25 25 30 31 32 34 35 34 32 33 32 29 30 30 29 27 26 25 23 22 22 21 21 21 21 21 21 21 21 21 21 21 21 21 21 21 21 21 21 21 21 21 21 21 21 21 21
25 23 25 26 30 32 33 35 35 33 32 32 31 30 29 30 29 28 26 24 23 22 22 21 21 21 21 21 21 21 21 21 21 21 21 21 21 21 21 21 21 21 21 21 21 21 21 21 21
22 22 25 27 30 32 34 34 34 33 33 32 30 30 30 29 29 29 26 24 25 23 21 21 21 21 21 21 21 21 21 21 21 21 21 21 21 21 21 21 21 21 21 21 21 21 21 21 21
22 23 27 29 29 31 34 33 33 33 32 32 31 29 29 30 30 28 26 25 24 22 22 22 21 21 21 21 21 22 21 21 21 21 21 21 21 21 21 21 21 21 21 21 21 21 21 22 22
22 23 25 26 30 31 34 34 36 34 32 33 32 29 28 30 31 29 27 25 24 23 23 22 22 22 22 21 21 22 21 21 21 21 21 21 21 21 21 22 22 21 21 21 21 22 22 22 22
27 25 26 30 29 30 34 35 36 35 34 33 33 31 31 32 30 29 28 26 25 24 24 24 23 23 23 22 21 21 22 22 22 22 22 22 23 23 22 23 23 23 22 21 21 22 22 22 22
24 24 23 29 24 33 36 35 35 35 34 32 32 32 32 32 30 29 29 27 26 25 24 24 24 23 22 23 23 23 23 23 23 23 24 24 24 24 24 23 23 23 23 21 22 23 22 22 22
28 27 27 31 31 34 35 36 36 32 31 32 31 31 31 32 32 31 30 28 28 26 26 25 25 24 23 23 24 25 25 24 24 23 23 24 24 24 23 23 24 24 23 23 23 23 22 22 23
29 32 31 35 34 31 31 31 31 33 33 33 32 31 31 30 29 31 31 32 30 29 27 26 26 25 25 25 25 25 25 25 24 24 24 25 25 24 24 24 24 24 23 23 23 23 23 23 23
33 33 35 34 34 29 31 31 29 33 34 33 32 32 30 30 30 32 32 32 30 29 28 28 27 26 26 26 26 25 25 25 25 25 25 26 26 25 25 25 24 24 23 23 23 23 23 23 23
35 32 33 32 32 31 29 29 30 33 34 33 32 31 30 30 31 32 32 32 31 30 30 29 28 27 27 27 27 27 27 27 26 26 27 27 26 26 25 25 25 24 24 24 23 23 23 23 23
35 32 30 31 32 32 31 29 29 30 32 32 31 31 31 31 32 32 32 32 32 31 29 29 28 27 27 27 27 27 27 28 27 27 27 27 26 26 25 25 24 24 24 23 22 23 23 23 23
36 31 28 33 32 31 29 28 29 30 31 32 31 32 32 31 31 34 33 32 32 29 29 28 27 27 27 26 26 27 27 27 28 28 27 26 26 25 25 25 25 24 23 23 23 22 23 23 23
32 31 31 33 33 31 29 26 28 28 30 32 32 31 32 31 32 33 34 33 32 30 29 28 27 27 26 26 26 26 26 27 28 27 27 26 26 26 25 24 24 24 23 22 22 21 22 23 22
31 32 35 34 32 32 27 25 28 29 30 31 32 32 31 33 31 33 34 33 32 31 30 30 28 27 27 26 26 26 27 27 28 27 27 26 26 25 25 24 24 23 23 22 21 21 22 22 22
35 34 35 38 33 32 28 28 29 29 28 30 32 32 31 31 32 33 34 33 31 30 30 30 29 28 27 27 27 26 27 28 28 27 27 26 26 26 25 24 24 23 23 22 21 22 22 22 23
35 35 37 38 39 33 28 27 28 28 28 31 32 32 32 32 33 32 33 31 30 30 30 30 29 28 27 27 27 27 27 28 27 26 27 27 26 25 25 24 23 24 23 22 22 22 22 23 23
36 35 38 38 39 38 33 31 28 32 34 33 32 32 33 33 32 32 32 32 30 29 30 29 29 28 27 27 27 27 27 27 26 25 27 29 27 26 25 24 24 24 23 23 23 23 22 23 23
34 38 39 38 34 32 35 30 33 31 33 34 32 31 31 33 33 32 32 32 30 29 30 29 29 29 28 28 27 28 28 28 24 25 28 26 26 26 25 24 24 24 23 23 23 23 23 23 23
35 38 37 38 35 31 33 30 30 30 32 34 33 33 32 31 33 33 32 32 31 29 29 29 29 29 29 28 27 28 28 28 27 26 26 26 26 26 26 24 24 24 24 24 23 23 23 23 23
38 37 35 35 32 29 33 31 30 31 34 34 35 35 33 29 30 32 34 33 31 29 29 29 29 29 28 28 28 28 28 29 27 27 25 24 26 25 25 24 25 25 24 24 23 23 23 23 23
36 34 29 29 27 26 31 30 31 35 35 36 35 35 34 33 30 29 33 33 31 30 29 28 28 28 28 28 28 28 28 28 28 28 27 27 27 25 25 25 25 24 24 24 23 23 23 23 23
34 34 28 32 25 28 32 33 33 36 36 37 37 35 35 33 33 29 31 33 33 31 29 29 28 28 28 28 28 28 28 28 28 28 28 28 29 27 25 25 25 24 24 24 23 23 23 23 23
34 32 34 33 32 31 33 35 36 36 36 36 36 35 35 34 33 32 30 33 33 31 31 29 28 28 28 28 28 28 28 28 28 28 28 28 28 26 25 25 24 24 24 24 23 23 23 22 22
36 35 31 29 33 33 31 33 33 34 35 35 35 34 34 34 34 32 32 31 33 33 32 30 29 28 28 29 28 28 28 28 28 28 28 28 28 27 25 25 24 24 23 23 23 23 22 22 21
33 33 33 30 31 30 30 29 32 29 35 35 35 35 34 34 34 33 33 33 33 34 32 31 29 28 28 28 28 28 27 27 27 27 28 28 28 26 26 24 24 24 23 23 23 22 22 21 21
35 34 32 28 30 30 30 29 34 33 36 34 34 35 34 34 33 33 33 33 33 34 33 31 29 28 29 29 29 28 28 27 27 27 27 27 28 26 26 24 24 23 23 22 22 22 21 21 20
Height
765 766 767 754 781 779 784 761 738 757 759 749 751 759 762 764 773 801 782 789 791 797 803 806 806 807 811 811 815 818 820 821 825 825 827 830 831 832 833 835 835 837 838 840 842 842 843 843 843
764 767 769 769 784 803 795 752 752 750 752 749 752 756 765 777 762 773 783 789 792 798 804 806 806 809 812 814 818 820 822 824 827 828 830 832 833 835 836 837 838 839 840 842 844 844 845 845 845
766 766 773 778 780 793 794 752 742 740 739 741 760 752 762 774 769 773 783 788 794 800 805 807 808 811 814 816 820 822 824 826 828 830 833 834 836 837 839 840 841 841 841 843 845 846 846 846 846
768 767 768 785 771 757 753 740 730 737 744 740 746 768 763 765 771 777 784 790 795 801 805 807 810 813 816 818 821 823 826 828 830 832 834 835 837 838 840 841 843 842 842 844 845 846 846 846 847
769 776 789 791 770 749 739 730 730 746 749 751 750 770 772 772 775 781 787 791 794 801 806 809 812 815 818 820 823 825 827 829 831 832 834 836 837 838 840 841 842 843 844 844 845 846 847 846 848
782 787 800 794 772 750 736 731 735 741 748 754 762 769 773 773 777 780 786 790 794 799 807 811 814 817 819 822 824 826 828 829 830 831 833 834 836 836 838 839 840 842 844 845 845 847 847 847 848
778 790 791 781 777 762 740 730 740 742 749 757 756 774 773 775 777 782 787 790 796 801 806 812 815 818 821 823 825 827 828 828 830 831 833 835 836 837 838 838 839 840 843 845 845 846 847 846 847
781 787 792 785 775 766 736 732 728 736 752 747 752 778 782 770 776 781 786 790 796 801 803 810 815 818 820 822 825 826 827 828 829 830 832 834 835 836 837 838 838 839 841 843 844 845 846 846 846
775 801 799 779 775 758 734 739 728 729 741 747 749 760 764 767 775 781 788 793 797 801 804 808 812 816 819 823 825 826 826 827 829 830 831 833 834 835 836 837 838 838 840 842 843 843 843 845 845
785 796 797 766 777 744 731 733 732 739 745 753 757 761 766 768 775 780 786 791 795 800 804 806 811 815 818 821 824 825 825 827 829 830 831 833 833 833 834 835 838 838 839 841 841 841 843 844 844
762 772 766 747 740 733 734 732 729 750 763 752 761 762 765 768 771 777 782 787 789 796 802 805 810 814 818 820 822 823 824 825 827 829 830 831 833 833 833 834 836 837 838 838 839 840 841 841 843
766 749 749 732 737 742 750 746 752 742 748 746 753 760 765 769 773 776 780 784 789 795 799 806 810 814 816 818 821 822 823 824 826 828 830 832 832 833 833 833 834 834 836 836 837 838 840 840 842
755 746 731 737 731 748 741 746 757 750 741 746 755 762 767 770 771 775 779 782 788 794 800 803 808 812 815 818 820 821 822 823 825 827 829 831 832 832 831 832 833 834 834 836 836 835 837 838 839
729 740 740 745 743 747 752 758 753 751 745 750 757 764 767 769 769 772 777 781 787 792 797 802 807 812 815 818 820 821 823 824 825 826 828 829 830 831 832 832 833 834 834 833 834 834 835 836 835
725 750 752 751 749 751 750 770 767 754 753 755 761 763 764 765 767 770 774 779 784 789 795 801 805 810 814 815 818 820 822 823 826 827 828 829 830 831 832 832 832 832 832 831 830 833 832 833 833
734 754 784 742 750 749 749 785 760 754 759 759 760 761 762 762 764 767 772 777 782 787 793 800 805 808 812 815 817 820 822 824 825 825 827 828 829 830 830 830 829 829 828 828 827 829 830 830 831
750 777 766 752 742 746 760 789 769 759 757 758 759 759 760 760 761 764 769 774 779 784 790 796 801 806 811 814 817 819 821 822 823 826 826 828 828 828 827 827 826 825 824 822 823 823 828 829 829
772 769 762 753 753 747 774 790 758 748 751 757 754 756 757 756 759 761 766 771 777 783 789 794 798 804 808 812 817 819 820 821 823 826 827 828 827 828 827 825 824 824 822 821 822 824 826 827 828
737 749 754 725 733 745 765 762 743 743 752 755 752 752 755 754 754 758 763 769 775 781 787 792 796 802 806 811 815 817 818 820 821 823 824 826 828 826 826 825 823 823 823 821 822 824 825 826 827
736 745 741 723 715 734 764 766 747 747 749 748 746 747 747 749 752 755 760 766 772 777 783 789 793 799 804 808 812 814 816 817 818 819 820 820 824 824 824 824 823 822 823 822 823 825 826 826 826
735 743 734 736 718 716 741 764 763 738 730 732 735 736 739 742 750 752 757 763 769 775 780 785 791 796 801 805 810 812 814 813 815 819 816 814 820 825 826 825 824 823 823 823 824 826 826 826 826
753 715 719 729 748 777 733 794 750 744 737 729 733 737 738 736 741 746 752 759 765 770 776 782 787 792 798 802 805 808 810 813 822 820 816 813 818 822 827 826 825 824 824 824 823 825 825 825 825
740 711 723 722 744 765 753 778 757 740 747 732 726 727 730 731 735 742 746 753 760 766 772 777 783 788 793 798 801 804 807 812 815 819 820 814 818 821 826 826 824 824 822 824 824 825 826 826 827
709 720 729 735 757 793 757 778 767 747 729 722 714 716 721 732 735 737 741 748 756 764 769 774 779 783 788 793 798 800 804 806 810 814 814 815 816 820 823 824 823 821 820 822 822 824 824 825 826
723 743 798 808 823 824 758 778 758 717 703 704 709 710 712 722 727 734 739 743 751 759 765 770 774 778 783 788 792 796 800 802 805 810 812 811 816 819 819 819 817 818 819 819 820 821 822 824 824
737 744 796 803 837 799 755 770 747 699 690 687 693 700 705 716 722 730 733 739 744 751 758 763 768 772 776 781 785 790 794 798 804 807 809 808 806 809 815 815 815 817 818 821 822 822 822 822 823
734 755 728 757 754 779 759 737 714 700 702 700 702 702 706 710 718 723 728 733 739 745 750 755 761 765 770 774 779 784 789 793 797 802 805 805 805 807 810 811 814 817 820 821 822 823 823 823 824
717 714 767 769 784 787 774 761 757 729 718 707 707 708 704 705 712 719 723 728 734 739 745 750 754 759 763 768 774 779 782 788 793 798 800 800 800 801 805 808 812 814 818 821 823 825 825 826 828
733 743 739 751 763 791 800 788 733 732 707 709 706 702 702 703 706 713 719 723 728 734 740 746 751 756 761 765 769 774 778 782 786 788 792 795 797 799 802 804 807 810 816 819 820 822 824 826 828
709 726 736 780 776 762 768 780 717 720 701 701 704 700 699 698 702 706 712 719 725 729 735 740 745 750 755 759 764 767 771 775 779 783 787 791 793 794 795 802 807 812 816 817 820 824 827 827 829
Wind_Speed
11 10 7 3 1 2 6 7 13 17 12 11 14 15 8 14 5 5 26 28 26 24 23 22 23 24 20 25 22 19 19 18 15 16 17 16 15 15 14 14 14 14 14 14 13 16 15 13 13
11 11 3 2 4 4 5 7 5 21 14 13 11 20 21 16 16 17 24 31 26 26 24 24 22 24 22 22 21 19 17 15 13 14 15 14 14 14 12 12 13 13 13 12 11 13 13 11 11
10 10 1 2 3 5 5 3 8 19 17 18 9 8 9 14 16 22 39 33 30 27 24 24 22 22 21 22 19 17 15 14 13 12 12 12 12 12 10 10 10 12 12 10 9 10 10 9 8
5 5 3 2 1 5 3 7 10 19 20 19 21 14 8 29 29 29 37 36 33 29 26 24 22 21 20 19 17 15 14 13 12 11 10 10 9 10 8 8 7 9 9 8 8 8 9 7 6
5 2 2 3 3 8 6 4 6 23 18 16 21 18 19 28 32 36 40 39 35 28 26 23 21 20 19 17 16 15 14 12 11 10 9 9 8 8 7 6 6 6 7 7 7 7 7 5 4
3 1 3 2 5 3 3 9 4 23 23 20 23 19 15 37 35 37 39 37 31 33 26 22 21 20 18 16 14 14 12 11 11 10 9 8 8 7 8 8 7 6 6 6 7 7 5 5 4
2 3 5 5 1 6 4 5 1 18 21 15 21 19 11 19 32 39 38 35 32 31 29 24 21 18 17 16 15 13 12 11 11 10 9 8 7 7 7 8 8 8 7 6 7 7 6 4 4
2 1 5 4 3 4 5 3 15 14 20 20 21 11 10 12 32 35 39 38 37 29 29 25 23 21 18 16 14 13 12 12 11 11 10 8 7 6 7 7 8 8 9 7 6 5 6 5 5
4 3 8 7 3 5 9 12 12 16 17 18 10 16 16 23 39 36 32 34 33 31 28 26 24 21 19 17 16 13 13 12 11 10 10 9 9 9 6 7 7 6 8 8 8 7 6 6 6
5 6 9 4 8 5 12 14 10 13 16 18 18 20 23 22 32 26 27 29 30 32 32 27 25 25 23 18 17 15 13 13 13 11 8 10 4 8 10 8 7 7 7 8 8 6 6 6 5
9 6 13 5 15 2 8 4 16 18 7 19 23 20 15 11 15 22 24 32 30 33 32 31 26 27 25 18 18 17 16 13 12 12 9 6 8 9 10 8 5 5 7 8 8 7 6 6 6
12 12 2 15 10 10 5 7 11 11 12 22 19 18 11 9 8 18 18 23 21 33 34 31 29 31 27 21 19 17 16 15 13 13 14 7 9 14 13 14 6 6 7 7 10 9 6 9 10
9 9 19 17 21 14 17 12 6 7 21 21 20 16 11 10 11 24 25 24 27 29 33 32 30 28 26 19 15 16 16 18 16 14 11 7 6 6 12 12 9 7 7 9 9 9 9 9 11
5 14 7 11 6 13 16 3 4 9 16 20 20 14 12 10 12 19 22 26 32 32 29 29 24 20 23 15 10 10 12 11 20 18 11 9 6 8 8 7 9 9 11 11 7 7 10 6 7
10 3 10 12 8 6 17 3 4 2 5 17 15 15 13 12 18 17 24 28 30 29 32 31 26 20 16 10 12 8 8 4 10 11 14 9 8 7 8 9 9 11 12 10 10 10 11 10 7
2 7 5 6 9 5 6 4 6 5 3 16 14 13 13 10 15 25 23 30 32 34 34 28 23 22 17 12 12 14 13 10 7 7 8 8 7 9 8 10 11 9 11 10 12 9 8 5 5
3 3 11 7 16 10 4 5 15 6 3 12 14 12 12 11 14 24 28 26 33 37 33 29 26 24 20 17 10 15 11 11 8 7 7 8 5 5 6 8 12 11 10 8 12 11 10 5 5
8 2 6 3 11 9 23 2 16 8 7 10 15 13 12 14 14 25 28 27 33 35 31 26 29 25 24 21 11 10 10 12 8 7 8 5 7 8 6 7 9 8 8 4 6 11 7 5 4
11 9 13 5 17 11 17 10 10 10 7 13 15 14 10 9 15 27 29 29 38 36 31 27 23 29 25 23 17 12 12 9 13 10 5 5 6 6 6 7 2 3 6 6 4 7 6 4 5
9 11 4 5 9 13 13 8 12 10 11 16 17 16 15 9 18 16 25 29 36 38 33 28 24 31 24 21 15 16 14 10 8 3 8 10 8 5 6 3 1 1 6 5 5 4 0 2 1
6 8 1 1 3 1 9 8 8 10 17 19 17 19 17 15 17 15 16 29 33 34 36 31 29 30 25 19 15 16 14 13 15 13 2 10 5 5 4 3 3 7 4 5 5 4 1 1 2
8 10 5 7 7 4 5 3 4 4 13 17 13 18 17 17 13 16 16 27 32 34 38 35 31 30 25 21 21 20 15 9 12 3 7 11 8 6 5 4 3 4 3 4 4 1 1 1 2
10 10 7 3 4 8 4 5 7 7 8 13 17 19 18 16 14 20 16 31 32 35 36 39 34 31 27 25 23 19 17 14 14 16 17 12 11 7 6 6 6 4 5 4 3 4 4 4 4
8 8 9 8 5 4 4 4 7 7 18 16 14 20 23 14 10 17 26 27 32 35 34 38 38 34 30 26 28 24 19 19 10 13 18 15 10 14 10 10 9 6 5 8 9 9 8 8 7
8 4 3 5 5 7 10 1 12 8 10 16 17 12 19 25 14 11 15 19 30 34 33 35 39 36 33 29 26 29 24 17 17 10 15 18 14 16 15 13 12 9 11 10 11 9 12 8 7
7 4 5 3 5 7 8 3 7 8 8 13 16 10 15 19 20 13 15 22 24 39 36 37 37 36 38 33 31 29 29 25 16 15 14 16 14 12 17 15 12 16 12 11 10 11 11 8 7
8 5 9 3 6 3 4 1 7 9 9 10 12 9 15 18 22 18 15 22 28 33 37 37 38 38 38 39 34 30 28 28 26 19 18 15 16 15 21 19 17 12 13 11 9 14 11 10 7
6 4 6 4 1 1 4 5 3 1 9 10 13 10 9 13 18 18 14 19 28 28 35 34 42 39 40 38 36 35 30 27 29 25 21 19 17 24 26 25 20 18 14 11 10 11 9 11 7
4 4 4 2 3 2 3 5 3 18 5 9 10 12 10 11 9 18 17 24 31 33 34 31 37 35 34 36 34 33 32 29 28 29 26 23 19 30 32 29 25 20 17 13 10 14 10 9 8
9 8 8 5 9 4 4 5 11 19 4 10 9 8 9 10 10 11 13 26 26 28 32 32 37 36 39 40 36 34 31 31 30 30 29 23 23 30 29 27 24 19 16 12 12 11 8 10 10
Wind_Direction
179 182 164 224 282 30 339 55 112 117 71 101 83 111 152 169 160 161 146 141 145 144 144 138 135 131 130 127 123 121 114 111 109 106 105 104 101 99 98 98 99 97 96 97 100 98 99 100 99
188 193 194 286 100 40 314 134 99 103 120 106 81 93 83 90 95 117 122 135 137 142 144 139 139 136 133 127 126 122 120 119 117 109 111 111 103 99 99 99 102 102 101 100 104 100 99 99 99
186 253 329 191 208 142 206 261 111 92 108 102 101 92 92 112 119 127 133 136 132 141 144 141 142 140 135 130 129 127 126 126 124 121 119 114 111 106 105 102 104 106 106 109 110 110 108 109 106
224 343 330 291 354 180 150 131 134 110 104 102 120 94 102 119 120 134 137 132 136 143 146 143 140 140 138 136 135 134 134 134 131 131 129 127 127 121 123 117 117 116 117 125 126 123 116 120 121
20 70 286 232 152 73 85 121 91 100 94 107 100 106 122 123 129 132 128 133 136 139 142 140 138 137 138 141 141 138 141 140 139 139 148 146 147 145 142 141 140 136 139 147 144 141 138 145 140
62 54 300 254 27 334 83 95 45 102 116 106 105 111 116 136 138 137 134 134 138 135 134 135 137 138 136 141 142 142 147 148 154 161 167 169 168 171 167 165 157 158 163 165 163 156 146 160 184
352 102 277 345 303 290 75 67 103 116 116 110 122 123 133 141 145 131 131 134 131 135 137 140 138 137 141 142 145 148 150 156 166 169 171 170 173 184 182 179 174 176 177 174 170 165 166 174 185
268 355 290 197 181 223 121 88 94 109 123 127 129 136 146 154 145 137 135 135 138 142 141 144 148 150 152 151 155 157 167 177 176 178 180 178 182 183 189 189 175 181 186 193 205 183 181 193 225
239 316 339 290 196 231 134 115 109 121 137 144 128 134 140 161 137 136 136 137 142 149 148 151 156 156 156 160 161 165 172 177 178 184 188 187 191 185 174 189 188 186 196 202 209 199 196 200 224
150 165 229 215 332 260 149 131 138 146 111 120 127 128 145 171 142 144 150 148 157 159 159 160 159 161 164 168 172 174 176 178 178 176 181 177 174 188 192 194 204 216 201 211 218 205 205 208 200
183 183 171 277 174 165 22 94 100 92 102 134 140 138 156 163 143 142 144 161 166 162 161 168 165 165 167 175 175 173 178 178 186 185 200 217 204 187 188 205 209 204 205 209 229 244 235 225 218
66 291 176 107 56 53 359 94 348 144 136 134 136 140 159 163 144 145 159 158 130 147 163 165 168 168 174 186 177 181 183 188 197 195 202 232 230 216 207 220 224 230 228 234 235 250 235 232 253
31 355 24 347 95 96 67 25 303 299 128 133 136 149 152 174 163 164 166 163 144 149 154 147 157 167 174 181 184 198 207 209 200 189 194 198 199 223 207 210 218 229 233 243 233 227 210 228 257
41 67 278 333 79 118 108 132 87 70 131 137 143 157 163 177 179 174 157 161 145 150 150 151 146 154 163 166 180 171 194 189 202 193 177 192 209 223 198 204 232 237 235 243 217 214 223 239 219
137 104 336 307 295 89 131 83 264 285 290 142 151 164 175 179 182 170 163 162 156 154 155 158 160 163 170 162 196 180 166 152 178 201 207 188 210 215 238 249 251 262 270 250 258 252 244 261 259
331 90 228 245 202 175 123 260 237 242 257 150 163 170 176 188 169 171 163 159 161 149 152 158 167 172 173 182 201 190 172 207 214 207 197 204 202 224 251 273 285 290 286 277 232 246 240 250 268
53 186 220 132 206 129 55 350 334 330 272 171 169 173 179 192 164 169 163 163 161 155 155 161 165 169 175 184 182 186 216 227 211 195 202 219 235 254 268 283 297 313 314 288 241 245 224 234 268
269 316 352 206 164 125 92 22 305 280 269 230 172 177 186 195 160 167 165 163 155 155 157 162 169 174 173 178 187 200 231 199 205 195 236 228 241 243 262 293 302 325 342 358 187 203 209 240 273
268 256 230 115 166 115 135 165 235 242 268 238 181 177 187 179 162 168 168 160 154 156 159 165 161 174 173 177 184 216 236 210 207 201 195 242 234 251 280 284 14 3 23 69 107 175 203 246 269
241 255 288 283 96 116 157 190 213 220 233 218 182 181 180 185 161 170 171 147 155 162 165 167 168 170 175 178 189 203 220 227 204 124 224 202 233 227 270 261 236 79 70 95 109 130 136 283 343
278 238 300 77 303 116 166 147 218 219 202 170 188 180 178 186 163 170 166 156 158 162 168 171 175 170 174 179 193 213 228 223 173 150 330 149 206 229 222 221 76 100 96 84 118 127 50 330 32
312 305 32 21 6 277 139 221 228 195 202 174 190 172 182 183 168 169 166 165 161 168 173 177 182 184 192 191 201 216 224 216 134 191 225 210 175 204 203 190 112 84 126 117 109 95 130 65 56
264 296 335 342 292 47 347 81 266 166 225 195 173 175 181 181 176 170 171 171 170 169 173 180 184 187 192 196 202 214 222 223 199 212 222 184 193 201 216 161 146 115 106 131 106 117 86 83 63
313 302 346 329 26 341 358 80 284 181 198 188 190 178 175 173 175 172 177 166 174 171 174 180 186 191 193 198 208 213 217 227 215 179 190 193 176 184 202 173 147 162 155 145 133 127 129 108 93
291 312 322 39 67 253 281 67 230 271 170 179 182 184 160 168 170 167 176 176 159 174 176 181 186 189 194 199 205 215 219 221 233 183 188 188 185 192 192 178 174 170 161 161 155 141 132 115 91
262 188 169 204 192 241 346 251 270 144 97 156 162 159 148 158 169 168 179 178 170 174 174 182 186 190 195 200 206 211 220 221 218 215 193 180 206 198 200 187 189 186 184 154 143 155 134 135 108
274 304 237 244 283 70 229 40 38 107 101 96 136 139 152 155 166 176 171 178 183 172 179 181 187 193 198 202 206 209 213 221 219 216 210 204 223 221 200 188 192 193 173 168 167 143 132 132 131
168 257 8 348 236 315 331 59 63 123 137 150 149 154 151 167 159 175 171 166 185 181 184 179 188 191 198 204 208 211 213 218 221 220 218 219 218 198 189 188 189 175 177 162 153 149 131 118 114
311 277 278 186 158 185 119 282 58 333 182 146 158 153 160 153 154 158 174 182 181 182 184 185 184 188 193 199 209 211 212 216 219 217 219 219 208 194 193 188 184 178 173 169 164 155 152 137 119
215 226 196 135 278 222 162 273 189 204 105 86 97 141 154 154 159 158 162 171 179 186 175 180 185 188 195 201 208 211 211 214 220 221 219 215 206 202 204 184 174 168 166 157 147 151 144 136 119